Tracking 19572 objects as of 23-Feb-2019
HD Live streaming from Space Station
objects crossing your sky now

THORAD DELTA 1 DEB

Track THORAD DELTA 1 DEB now!
10-day predictions


NORAD ID: 8136
Int'l Code: 1974-089E
Perigee: 1,352.8 km
Apogee: 1,468.3 km
Inclination: 101.3 °
Period: 113.9 minutes
Semi major axis: 7781 km
RCS: 6.2661 m2 (large)
Launch date: November 15, 1974
Source: United States (US)
Launch site: AIR FORCE WESTERN TEST RANGE (AFWTR)

Note: This is SATELLITE DEBRIS
aabbcc
Your satellite tracking list
Your tracking list is empty




NASA's NSSDC Master Catalog

Two Line Element Set (TLE):
1  8136U 74089E   19053.77897156 -.00000044 +00000-0 -33125-5 0  9993
2  8136 101.3138 118.2105 0074249 053.2210 092.2965 12.64743187768067
Source of the keplerian elements: AFSPC